This demonstration page uses our WeatherBlox Daily Observations layout. Learn more.

Left ArrowRight Arrow

39.92423, -83.80882

Hourly Observations for March 4, 2019

Temp ( °F °C ) Dew Point ( °F °C ) Humidity (%) Winds ( mph kmh ) Pressure ( in mb ) Visibility ( mi km ) Precip ( " mm )
12:38 am 00:38 Cloudy with Light Snow 21 -6 18 -8 86 86 NNW 15 24 30.13 1020 9 14.48406 0 0.0254
12:56 am 00:56 Cloudy with Light Snow 21 -6.1 17 -8.3 85 85 NNW 14 22 30.1 1019 9 14.48406 0 0.0254
1:52 am 01:52 Cloudy with Light Snow 19 -7 16 -9 86 86 NW 13 20 30.16 1021 9 14.48406 0 0.0254
1:56 am 01:56 Cloudy with Light Snow 19 -7.2 15 -9.4 84 84 NNW 13 20 30.12 1020 9 14.48406 0 0.0254
2:56 am 02:56 Cloudy with Light Snow 18 -7.8 14 -10 84 84 NW 15 24 30.12 1020 9 14.48406 0 0.0254
3:56 am 03:56 Cloudy with Light Snow 16 -8.9 11 -11.7 80 80 NNW 16 26 30.12 1020 9 14.48406 0 0.0254
4:44 am 04:44 Cloudy 12 -11 9 -13 85 85 NNW 8 13 30.18 1022 10 16.0934 0 0.0254
4:56 am 04:56 Mostly Cloudy 11 -11.7 7 -13.9 84 84 NNW 7 11 30.15 1021 10 16.0934 0 0.0254
5:56 am 05:56 Partly Cloudy 10 -12.2 6 -14.4 84 84 WNW 6 9 30.17 1022 10 16.0934 0 0
6:56 am 06:56 Cloudy 10 -12.2 7 -13.9 87 87 W 6 9 30.17 1022 10 16.0934 0 0
7:56 am 07:56 Cloudy 12 -11.1 8 -13.3 84 84 W 8 13 30.17 1022 10 16.0934 0 0
8:56 am 08:56 Mostly Cloudy 13 -10.6 7 -13.9 77 77 WNW 9 15 30.19 1022 10 16.0934 0 0
9:56 am 09:56 Sunny 14 -10 6 -14.4 71 71 W 10 17 30.19 1023 10 16.0934 0 0
10:56 am 10:56 Mostly Cloudy 16 -8.9 6 -14.4 65 65 W 12 19 30.19 1023 10 16.0934 0 0
11:56 am 11:56 Sunny 16 -8.9 5 -15 62 62 W 15 24 30.19 1022 10 16.0934 0 0
12:56 pm 12:56 Sunny 17 -8.3 7 -13.9 64 64 W 18 30 30.19 1022 10 16.0934 0 0
1:56 pm 13:56 Mostly Sunny 16 -8.9 7 -13.9 67 67 WSW 18 30 30.17 1022 10 16.0934 0 0
2:56 pm 14:56 Mostly Sunny 16 -8.9 7 -13.9 67 67 W 14 22 30.18 1022 10 16.0934 0 0
3:56 pm 15:56 Mostly Cloudy 15 -9.4 6 -14.4 67 67 WSW 16 26 30.19 1023 10 16.0934 0 0
4:18 pm 16:18 Mostly Cloudy 16 -9 7 -14 67 67 WSW 17 28 30.22 1024 10 16.0934 0 0
4:56 pm 16:56 Mostly Cloudy 14 -10 6 -14.4 71 71 W 16 26 30.19 1022 10 16.0934 0 0
5:38 pm 17:38 Partly Cloudy 14 -10 5 -15 67 67 W 14 22 30.24 1024 10 16.0934 0 0
5:46 pm 17:46 Mostly Cloudy 14 -10 7 -14 73 73 W 17 28 30.24 1024 10 16.0934 0 0
5:56 pm 17:56 Partly Cloudy 14 -10 5 -15 67 67 W 15 24 30.21 1023 10 16.0934 0 0
6:56 pm 18:56 Mostly Clear 12 -11.1 5 -15 73 73 W 16 26 30.22 1024 10 16.0934 0 0
7:56 pm 19:56 Clear 11 -11.7 4 -15.6 73 73 W 15 24 30.22 1023 10 16.0934 0 0
8:56 pm 20:56 Clear 10 -12.2 4 -15.6 76 76 W 15 24 30.22 1023 10 16.0934 0 0
9:56 pm 21:56 Clear 9 -12.8 4 -15.6 80 80 WNW 9 15 30.23 1024 10 16.0934 0 0
10:56 pm 22:56 Clear 8 -13.3 3 -16.1 80 80 W 12 19 30.23 1024 10 16.0934 0 0
11:56 pm 23:56 Clear 8 -13.3 2 -16.7 76 76 WNW 9 15 30.23 1024 10 16.0934 0 0

Powered by AerisWeather